EFIV Weather Reports


Display with metric or nautical units.
time (UTC)temp
F
wind
direction
speed
MPH
gust
MPH
rain 1hr
in
rain 24hr
in
rain mn
in
humidity
%
barometer
mb
20260905160456 45 17 18.0 30.0 0.00 0.00 0.00 69 1002.7
20260905154456 45 19 15.0 20.0 0.00 0.00 0.00 70 1002.6
20260905152457 45 20 16.0 22.0 0.00 0.00 0.00 71 1002.3
20260905150456 45 25 20.0 31.0 0.00 0.00 0.00 74 1002.3
20260905144457 45 18 19.0 30.0 0.00 0.00 0.00 69 1002.0
20260905142457 44 6 14.0 22.0 0.00 0.00 0.00 75 1001.9
20260905140456 44 359 13.0 24.0 0.00 0.00 0.00 76 1001.8
20260905134456 45 5 13.0 21.0 0.00 0.00 0.00 75 1001.7
20260905132454 45 13 14.0 20.0 0.00 0.00 0.00 75 1001.7
20260905130501 45 10 16.0 25.0 0.00 0.00 0.00 71 1001.7
20260905124456 45 18 15.0 23.0 0.00 0.00 0.00 69 1001.4
20260905122127 46 29 17.0 27.0 0.00 0.00 0.00 68 1001.6
20260905120456 46 28 19.0 26.0 0.00 0.00 0.00 66 1001.4
20260905114457 46 23 17.0 25.0 0.00 0.00 0.00 64 1001.4
20260905112457 46 26 15.0 22.0 0.00 0.00 0.00 66 1001.2
20260905110455 45 38 16.0 22.0 0.00 0.00 0.00 69 1001.2
20260905104457 46 19 17.0 23.0 0.00 0.00 0.00 68 1001.0
20260905102457 45 17 14.0 21.0 0.00 0.00 0.00 67 1000.8
20260905094455 44 8 14.0 22.0 0.00 0.00 0.00 72 1001.0
20260905092456 44 21 14.0 23.0 0.00 0.00 0.00 76 1000.9
20260905090457 44 18 16.0 25.0 0.00 0.00 0.00 75 1000.8
20260905084126 44 19 14.0 22.0 0.00 0.00 0.00 79 1000.9
20260905080454 43 19 15.0 21.0 0.00 0.00 0.00 82 1000.9
20260905074453 43 20 15.0 23.0 0.00 0.00 0.00 83 1000.8
20260905064126 43 26 12.0 19.0 0.00 0.00 0.00 89 1000.8
20260905062125 43 24 12.0 23.0 0.00 0.00 0.00 90 1000.8
20260905060455 42 25 15.0 20.0 0.00 0.00 0.00 91 1000.8
20260905054453 42 20 11.0 16.0 0.00 0.00 0.00 93 1000.9
20260905050454 41 11 8.0 14.0 0.00 0.00 0.00 95 1001.0
20260905044456 41 8 7.0 13.0 0.00 0.00 0.00 95 1001.1
20260905042455 41 13 8.0 14.0 0.00 0.00 0.00 96 1001.1
20260905040459 41 3 7.0 12.0 0.00 0.00 0.00 95 1001.1
20260905034454 41 359 7.0 14.0 0.00 0.00 0.00 94 1001.2
20260905032455 41 5 8.0 13.0 0.00 0.00 0.00 95 1001.1
20260905030454 41 10 10.0 16.0 0.00 0.00 0.00 93 1001.1
20260905024454 41 11 11.0 17.0 0.00 0.00 0.00 92 1001.2
20260905022453 41 9 11.0 16.0 0.00 0.00 0.00 90 1001.2
20260905020125 42 2 10.0 18.0 0.00 0.00 0.00 85 1001.3
20260905014454 42 1 9.0 16.0 0.00 0.00 0.00 79 1001.3
20260905012453 43 5 12.0 19.0 0.00 0.00 0.00 79 1001.3
20260905010455 43 8 10.0 15.0 0.00 0.00 0.00 79 1001.3
20260905004455 43 8 9.0 13.0 0.00 0.00 0.00 80 1001.4
20260905002456 43 13 11.0 15.0 0.00 0.00 0.00 81 1001.6
20260905000454 43 20 12.0 19.0 0.00 0.00 0.00 82 1001.7
20260904234454 44 29 14.0 20.0 0.00 0.00 0.00 81 1001.8
20260904232454 43 28 13.0 19.0 0.00 0.00 0.00 88 1001.9
20260904230124 43 27 13.0 17.0 0.00 0.00 0.00 94 1002.1
20260904224452 43 26 13.0 19.0 0.00 0.00 0.00 93 1002.2
20260904222454 43 17 13.0 19.0 0.00 0.00 0.00 94 1002.2
20260904220448 44 23 13.0 19.0 0.00 0.00 0.00 92 1002.3
20260904214454 44 23 14.0 21.0 0.00 0.00 0.00 88 1002.3
20260904212449 44 26 15.0 21.0 0.00 0.00 0.00 90 1002.5
20260904210451 44 28 13.0 18.0 0.00 0.00 0.00 91 1002.6
20260904204453 45 22 15.0 23.0 0.00 0.00 0.00 89 1002.6
20260904202454 45 20 11.0 16.0 0.00 0.00 0.00 86 1002.7
20260904200455 45 25 12.0 17.0 0.00 0.00 0.00 86 1002.8
20260904194452 46 30 14.0 21.0 0.00 0.00 0.00 85 1002.7
20260904192450 46 27 15.0 23.0 0.00 0.00 0.00 82 1002.6
20260904190452 47 27 15.0 24.0 0.00 0.00 0.00 79 1002.6
20260904182454 47 26 14.0 21.0 0.00 0.00 0.00 82 1002.7
20260904180450 48 21 14.0 19.0 0.00 0.00 0.00 80 1002.7
20260904174450 47 26 14.0 21.0 0.00 0.00 0.00 82 1002.7
20260904172451 47 21 15.0 21.0 0.00 0.00 0.00 87 1002.8
20260904170452 48 25 12.0 17.0 0.00 0.00 0.00 83 1002.7
20260904164452 48 35 14.0 20.0 0.00 0.00 0.00 81 1002.7
20260904162451 48 32 15.0 21.0 0.00 0.00 0.00 82 1002.7